Terminal Aerodrome Forecast
Issued by NWS

Home | Current Version | Previous Version | Text Only | Print | Product List | Glossary On
Versions: 1 2 3 4 5 6 7 8 9 10 11 12 13 14 15 16 17 18 19 20 21 22 23 24
000
FTUS43 KDMX 292339
TAFMCW
TAF
KMCW 292339Z 3000/3024 32026G36KT P6SM FEW070
     FM300100 31017KT P6SM SKC
     FM300400 26009KT P6SM SKC
     FM301800 25016G24KT P6SM BKN080=

USA.gov is the U.S. government's official web portal to all federal, state and local government web resources and services.